This is the latest recevied weather packets stored in our database for station/object MIDVIL-WX. If no packets are shown the sender has not sent any weather packets the latest 10 day(s).
| Time | Temp. | Humidity | Pressure | Rain* | Wind** | Luminosity | Snow |
|---|---|---|---|---|---|---|---|
| 1777950927 | 16.67° C | 65% | 973.5 hPa | 0 mm | - | - | - |
| 1777950056 | 16.67° C | 65% | 973.5 hPa | 0 mm | - | - | - |
| 1777949127 | 16.67° C | 56% | 973.8 hPa | 0 mm | - | - | - |
| 1777948248 | 17.22° C | 60% | 973.9 hPa | 0 mm | - | - | - |
| 1777947327 | 17.22° C | 60% | 973.8 hPa | 0 mm | - | - | - |
| 1777946456 | 17.22° C | 60% | 973.8 hPa | 0 mm | - | - | - |
| 1777945527 | 17.78° C | 63% | 972.9 hPa | 0 mm | - | - | - |
| 1777944645 | 17.78° C | 63% | 972.9 hPa | 0 mm | - | - | - |
| 1777943727 | 17.78° C | 63% | 972.9 hPa | 0 mm | - | - | - |
| 1777942852 | 17.78° C | 63% | 972.9 hPa | 0 mm | - | - | - |
| 1777941927 | 18.89° C | 43% | 973.4 hPa | 0 mm | - | - | - |
| 1777941044 | 19.44° C | 45% | 974.1 hPa | 0 mm | - | - | - |
| 1777940126 | 19.44° C | 45% | 974.1 hPa | 0 mm | - | - | - |
| 1777939256 | 20° C | 45% | 974.1 hPa | 0 mm | - | - | - |
| 1777938327 | 20.56° C | 34% | 974.1 hPa | 0 mm | - | - | - |
| 1777937445 | 21.11° C | 34% | 973.9 hPa | 0 mm | - | - | - |
| 1777936526 | 21.67° C | 34% | 973.9 hPa | 0 mm | - | - | - |
| 1777935652 | 21.67° C | 34% | 973.9 hPa | 0 mm | - | - | - |
| 1777934727 | 22.22° C | 37% | 973.7 hPa | 0 mm | - | - | - |
| 1777933847 | 22.22° C | 38% | 974.1 hPa | 0 mm | - | - | - |
| 1777932926 | 22.22° C | 38% | 974.1 hPa | 0 mm | - | - | - |
| 1777932059 | 22.78° C | 38% | 974.1 hPa | 0 mm | - | - | - |
| 1777931125 | 22.78° C | 34% | 975.1 hPa | 0 mm | - | - | - |
| 1777930248 | 22.78° C | 34% | 975.1 hPa | 0 mm | - | - | - |
| 1777929325 | 22.78° C | 35% | 974.1 hPa | 0 mm | - | - | - |
* Rain latest hour (hover to see other rain measurements)
** Current wind speed in m/s (hover to see current wind gust speed)